[[{"header":{"parameterUnit":"m.s-1","parameterCategory":1,"la1":30.2992,"la2":30.254,"lo1":-89.0895,"lo2":-89.0443,"dy":0.0025,"dx":0.0025,"nx":19,"ny":19,"refTime":"2026-04-18T09:00:00:Z","depth":0,"parameterNumber":2,"parameterNumberName":"U-component_of_WINDS"},"data":[0,0,0,0.2974,0.2974,0.302,0.302,0.3062,0.3062,0,0,0,0,0,0,0,0,0,0,0,0.2953,0.2953,0.2973,0.2974,0.302,0.302,0.3062,0.3062,0,0,0,0,0,0,0,0,0,0,0,0.2953,0.2953,0.2953,0.2975,0.302,0.302,0.3062,0.3033,0,0,0,0,0,0,0,0,0,0,0.2992,0.2966,0.2953,0.2953,0.2975,0.3019,0.302,0.3032,0.3035,0.3036,0,0.3036,0,0.305,0.3064,0.3065,0,0,0,0.2979,0.2963,0.2982,0.2953,0.2975,0.3019,0.3001,0.3034,0.3037,0.304,0.3037,0.3039,0.3051,0.3065,0.3065,0.3056,0.3056,0,0,0.2977,0.2957,0.298,0.2984,0.2978,0.2999,0.3002,0.3036,0.3031,0.3037,0.304,0.3051,0.3065,0.3065,0.3056,0.3056,0,0,0,0.2966,0.2955,0.2973,0.2982,0.2991,0.3,0.3004,0.303,0.3037,0.3041,0.3052,0.3065,0.3065,0.3057,0.3056,0.3022,0,0,0,0.2965,0.2949,0.2972,0.296,0.2991,0.3012,0.2996,0.3035,0.304,0.3052,0.3065,0.3066,0.3057,0.3056,0.3024,0.3008,0,0,0,0.2952,0.2947,0.2951,0.2959,0.2978,0.3012,0.3021,0.3037,0.3046,0.3065,0.3066,0.3057,0.3057,0.3025,0.3011,0.2998,0,0,0,0.2932,0.2921,0.2951,0.2942,0.2977,0.2991,0.3021,0.3033,0.3045,0.3065,0.3057,0.3056,0.3026,0.3012,0.3,0.2983,0.2975,0,0,0.2906,0.2917,0.2913,0.2941,0.2945,0.2986,0.2983,0.3013,0.3033,0.3047,0.3047,0.3023,0.3011,0.2999,0.2938,0.2932,0,0,0,0.2898,0.2895,0.29,0.2911,0.2934,0.2951,0.2984,0.2995,0.3007,0.3037,0.3017,0.301,0.3004,0.2996,0.2991,0.2985,0.3053,0.3053,0.3053,0.2831,0.2857,0.2852,0.2883,0.2893,0.2926,0.2936,0.2956,0.298,0.2974,0.2978,0.2938,0.2929,0.2925,0.2919,0.2973,0.2973,0.2973,0.2973,0.2793,0.2791,0.2823,0.283,0.2857,0.2862,0.2892,0.2909,0.2915,0.2938,0.2934,0.2955,0.2917,0.2912,0.297,0.2971,0.2971,0.2971,0.2971,0.275,0.2754,0.2768,0.2785,0.2794,0.2826,0.2831,0.2856,0.288,0.2876,0.288,0.2881,0.2882,0.2877,0.2876,0.2876,0.2876,0.2876,0.2876,0.2699,0.2716,0.2717,0.274,0.2749,0.2764,0.2796,0.2805,0.2822,0.2839,0.2839,0.2861,0.2909,0.2919,0.2874,0.2874,0.2875,0.2875,0.2875,0.2647,0.2662,0.2665,0.2674,0.2701,0.2707,0.274,0.2756,0.2767,0.2768,0.2792,0.2824,0.2836,0.284,0.2849,0.2788,0.2788,0.2788,0.2788,0.2608,0.2618,0.2625,0.2637,0.2652,0.2681,0.268,0.2704,0.2731,0.2739,0.2752,0.2766,0.277,0.278,0.2786,0.2793,0.272,0.272,0.272,0.2576,0.2588,0.2583,0.2611,0.2634,0.2652,0.2651,0.2662,0.2696,0.2718,0.2745,0.2748,0.2771,0.2777,0.2797,0.2806,0.2821,0,0]},{"header":{"parameterUnit":"m.s-1","parameterCategory":1,"la1":30.2992,"la2":30.254,"lo1":-89.0895,"lo2":-89.0443,"dy":0.0025,"dx":0.0025,"nx":19,"ny":19,"refTime":"2026-04-18T09:00:00:Z","depth":0,"parameterNumber":3,"parameterNumberName":"V-component_of_WINDS"},"data":[0,0,0,4.9698,4.9699,4.9726,4.9726,4.9781,4.9782,0,0,0,0,0,0,0,0,0,0,0,4.9703,4.9704,4.9698,4.9699,4.9726,4.9726,4.9781,4.9782,0,0,0,0,0,0,0,0,0,0,0,4.9703,4.9704,4.9705,4.9699,4.9726,4.9726,4.9781,4.9753,0,0,0,0,0,0,0,0,0,0,4.9723,4.9741,4.9704,4.9705,4.97,4.9726,4.9726,4.9751,4.9755,4.9778,0,4.9802,0,4.9793,4.9787,4.9787,0,0,0,4.9689,4.9738,4.9734,4.9705,4.97,4.9726,4.9711,4.9753,4.9757,4.9783,4.9803,4.9804,4.9794,4.9787,4.9788,4.9953,4.9954,0,0,4.9688,4.9715,4.9731,4.9737,4.9734,4.971,4.9712,4.9755,4.9779,4.9803,4.9805,4.9795,4.9788,4.9788,4.9952,4.9953,0,0,0,4.969,4.9715,4.9708,4.9735,4.9738,4.9711,4.9713,4.9777,4.9773,4.9806,4.9796,4.9788,4.9789,4.995,4.9952,5.0038,0,0,0,4.9689,4.9716,4.9708,4.9725,4.9738,4.9758,4.9735,4.977,4.9774,4.9795,4.9788,4.979,4.9949,4.9951,5.0033,5.0073,0,0,0,4.9697,4.9716,4.9725,4.9727,4.9739,4.9757,4.9755,4.977,4.9768,4.9787,4.979,4.9948,4.9951,5.0028,5.0065,5.0123,0,0,0,4.9713,4.9802,4.9727,4.9821,4.9739,4.981,4.9754,4.9806,4.9833,4.9789,4.9949,4.9952,5.0026,5.0061,5.0118,5.0175,5.0202,0,0,4.984,4.9818,4.9871,4.9805,4.9896,4.9804,4.9907,4.9906,4.9884,4.9931,4.9935,5.0034,5.0065,5.0122,5.0346,5.0368,0,0,0,4.992,4.9959,4.9977,5.0003,5.0005,5.0009,4.9989,4.9989,5.0027,4.9914,5.0071,5.0088,5.0121,5.0147,5.0165,5.019,4.9966,4.9966,4.9965,5.0137,5.0102,5.0188,5.0157,5.0184,5.0162,5.018,5.0175,5.0134,5.0172,5.0185,5.0325,5.0357,5.037,5.0397,5.0214,5.0214,5.0215,5.0215,5.0316,5.0365,5.0307,5.0369,5.0332,5.0384,5.0366,5.0335,5.0377,5.0313,5.0339,5.027,5.0395,5.0416,5.0221,5.022,5.0219,5.0219,5.0218,5.0453,5.047,5.0468,5.0501,5.0531,5.0497,5.054,5.0506,5.0474,5.05,5.0509,5.0508,5.05,5.0508,5.0508,5.0509,5.0509,5.0509,5.051,5.0594,5.0589,5.0629,5.0637,5.0649,5.066,5.0639,5.065,5.0653,5.0624,5.0624,5.0578,5.0414,5.0372,5.0517,5.0516,5.0515,5.0514,5.0513,5.0786,5.0737,5.0799,5.081,5.0816,5.0848,5.0804,5.0828,5.0832,5.0854,5.0802,5.0687,5.0662,5.0647,5.0612,5.081,5.081,5.081,5.081,5.0899,5.0884,5.0938,5.0959,5.0975,5.0941,5.1011,5.0996,5.0973,5.0973,5.094,5.0891,5.0878,5.0861,5.0841,5.0808,5.1051,5.1051,5.1052,5.1014,5.0998,5.1064,5.104,5.1042,5.1045,5.1109,5.1135,5.1099,5.1061,5.0972,5.0962,5.0883,5.0859,5.0818,5.0789,5.0727,0,0]}]]